Weather in Malino

Russia / Moscow Oblast     55°06′46″N   38°10′36″E
temp.,
°C
wind,
m/s
gust,
m/s
humid.,
%
clouds,
%
prec.,
mm/h
press.,
hPa
HPBL,
m
2 march, tue
tue200:00+1w61492100 0.0 1015710
03:00+1w61293100 0.0 1013687
06:00+1w61393100 0.0 1010581
09:00+1wnw61396100 0.1 1010604
12:00+1wnw612100100 0.0 1008710
15:00+1wnw6119799 0.1 1008671
18:00−1nw5128888 0.3 1008416
21:00−1nw5139083 0.3 1011712
3 march, wed
wed300:00−3nw6149197 0.1 1012637
03:00−5nw5139171 0.1 1014486
06:00−6nw6149077 0.0 1014573
09:00−5nw7138750 0.0 1016737
12:00−1nw610810 0.0 1015883
15:00−1wnw7108633 0.1 10151018
18:00−1wnw51193100 0.1 1014614
21:00−2w51290100 0.2 1014601
4 march, thu
thu400:00−2w51092100 0.1 1012621
03:00−2wsw71496100 0.2 1009563
06:00−1wsw81687100 0.1 1005736
09:00−1wsw81586100 0.1 1003753
12:000w71189100 0.0 1001883
15:000wsw71290100 0.1 1000745
18:000wsw61394100 0.1 999701
21:00−3nw4890100 1.3 1000303
5 march, fri
fri500:00−5nw488991 0.0 1002190
03:00−8nw369570 0.0 1005122
06:00−9nw239637 0.0 100733
09:00−6wnw129466 0.0 100986
12:00−4w118642 0.0 1010466
15:00−3w118368 0.1 1011397
18:00−6sw1188100 0.1 101021
21:00−7sw1190100 0.1 101221
6 march, sat
sat600:00−7nw2289100 0.0 101221
03:00−9nnw339577 0.0 101248
06:00−10nnw34910 0.0 101369
09:00−9nnw46920 0.0 1013267
12:00−6nw578656 0.0 1013786
15:00−6nw577978 0.1 10141025
18:00−8wnw3791100 0.2 1014200
21:00−8nw3794100 0.4 1015403